Regional Weather Roundup
Issued by NWS

Home | Current Version | Previous Version | Graphics & Text | Print | Product List | Glossary On
Versions: 1 2 3 4 5 6 7 8 9 10 11 12 13 14 15 16 17 18 19 20 21 22 23 24 25 26 27 28 29 30 31 32 33 34 35 36 37 38 39 40 41 42 43 44 45 46 47 48 49 50
000
ASUS43 KLSX 170207
RWRMO

WEATHER SUMMARY FOR MISSOURI
NATIONAL WEATHER SERVICE SPRINGFIELD MO
900 PM CDT WED AUG 16 2017

NOTE: "FAIR" INDICATES FEW OR NO CLOUDS BELOW 12,000 FEET WITH NO
       SIGNIFICANT WEATHER AND/OR OBSTRUCTIONS TO VISIBILITY.
       CURRENT SKY AND/OR WEATHER CONDITIONS ARE NOT AVAILABLE FOR
       CHILLICOTHE AND FARMINGTON.

MOZ001>031-035>038-043-044-053-054-170300-
...NORTHERN AND WESTERN MISSOURI...

CITY           SKY/WX    TMP DP  RH WIND       PRES   REMARKS
KANSAS CTY INT CLOUDY    75  72  90 SW5       29.84R
KANSAS C DTWN  CLOUDY    77  75  93 S10       29.82R
LEE`S SUMMIT   CLOUDY    71  71 100 S9        29.86R
ST JOSEPH      CLOUDY    75  73  93 SW5       29.82R FOG
CHILLICOTHE      N/A     74  71  91 S6        29.83S
KIRKSVILLE     LGT RAIN  76  72  87 S12       29.81F

$$
MOZ066>068-077>081-088>096-101>105-170300-
...SOUTHWEST MISSOURI...

CITY           SKY/WX    TMP DP  RH WIND       PRES   REMARKS
SPRINGFIELD    CLOUDY    78  75  90 S10       29.93R
JOPLIN         CLOUDY    76  69  79 N17G23    29.97R
BRANSON        MOCLDY    77  73  88 CALM      29.95R

$$
MOZ032>034-039>042-045>050-055>058-069>072-170300-
...CENTRAL MISSOURI...

CITY           SKY/WX    TMP DP  RH WIND       PRES   REMARKS
COLUMBIA       CLOUDY    73  71  93 S10       29.88S
JEFFERSON CITY LGT RAIN  75  74  96 CALM      29.88R
ROLLA          CLOUDY    71  70  96 S8        29.92S
SEDALIA        LGT RAIN  70  70 100 SE10      29.87S
WHITEMAN AFB   LGT RAIN  68  68  99 SW10      29.88R
WARRENSBURG    RAIN      68  64  88 S9        29.87R
OSAGE BEACH    TSTM      70  66  88 VRB3      29.96R

$$
MOZ051-052-059>065-170300-
...EAST CENTRAL MISSOURI...

CITY           SKY/WX    TMP DP  RH WIND       PRES   REMARKS
ST LOUIS INTL  CLOUDY    72  70  93 S6        29.91R
SPIRIT OF STL  CLOUDY    71  69  93 S6        29.89F
ST CHARLES     CLOUDY    72  71  97 S3        29.89S

$$
MOZ072>076-082>087-097>100-106>115-170300-
...SOUTH CENTRAL AND SOUTHEAST MISSOURI...

CITY           SKY/WX    TMP DP  RH WIND       PRES   REMARKS
CAPE GIRARDEAU CLOUDY    77  69  76 N10       29.96R
POPLAR BLUFF   PTCLDY    80  78  94 CALM      29.94R
WEST PLAINS    CLOUDY    80  71  74 S5        29.96F

$$


USA.gov is the U.S. government's official web portal to all federal, state and local government web resources and services.